EHI
0 1 0 0 0 0 0 0 0 0 0 0 0 0 0 0 0 0 0 0 0 0 0 0 0 0 0 0 0 0 0 0 0 0 0 0 0 0 0 0 0 0 0
1 1 0 0 0 0 0 0 0 0 0 0 0 0 0 0 0 0 0 0 0 0 0 0 0 0 0 0 0 0 0 0 0 0 0 0 0 0 0 0 0 0 0
0 0 0 0 0 0 0 0 0 0 0 0 0 0 0 0 0 0 0 0 0 0 0 0 0 0 0 0 0 0 0 0 0 0 0 0 0 0 0 0 0 0 0
0 0 0 0 0 0 0 0 0 0 0 0 0 0 0 0 0 0 0 0 0 0 0 0 0 0 0 0 0 0 0 0 0 0 0 0 0 0 0 0 0 0 0
0 0 0 0 0 0 0 0 0 0 0 0 0 0 0 0 0 0 0 0 0 0 0 0 0 0 0 0 0 0 0 0 0 0 0 0 0 0 0 0 0 0 0
0 0 0 0 0 0 0 0 0 0 0 0 0 0 0 0 0 0 0 0 0 0 0 0 0 0 0 0 0 0 0 0 0 0 0 0 0 0 0 0 0 0 0
0 0 0 0 0 0 0 0 0 0 0 0 0 0 0 0 0 0 0 0 0 0 0 0 0 0 0 0 0 0 0 0 0 0 0 0 0 0 0 0 0 0 0
0 0 0 0 0 0 0 0 0 0 0 0 0 0 0 0 0 0 0 0 0 0 0 0 0 0 0 0 0 0 0 0 0 0 0 0 0 0 0 0 0 0 0
0 0 0 0 0 0 0 0 0 0 0 0 0 0 0 0 0 0 0 0 0 0 0 0 0 0 0 0 0 0 0 0 0 0 0 0 0 0 0 0 0 0 0
0 0 0 0 0 0 0 0 0 0 0 0 0 0 0 0 0 0 0 0 0 0 0 0 0 0 0 0 0 0 0 0 0 0 0 0 0 0 0 0 0 0 0
0 0 0 0 0 0 0 0 0 0 0 0 0 0 0 0 0 0 0 0 0 0 0 0 0 0 0 0 0 0 0 0 0 0 0 0 0 0 0 0 0 0 0
0 0 0 0 0 0 0 0 0 0 0 0 0 0 0 0 0 0 0 0 0 0 0 0 0 0 0 0 0 0 0 0 0 0 0 0 0 0 0 0 0 0 0
0 0 0 0 0 0 0 0 0 0 0 0 0 0 0 0 0 0 0 0 0 0 0 0 0 0 0 0 0 0 0 0 0 0 0 0 0 0 0 0 0 0 0
0 0 0 0 0 0 0 0 0 0 0 0 0 0 0 0 0 0 0 0 0 0 0 0 0 0 0 0 0 0 0 0 0 0 0 0 0 0 0 0 0 0 0
0 0 0 0 0 0 0 0 0 0 0 0 0 0 0 0 0 0 0 0 0 0 0 0 0 0 0 0 0 0 0 0 0 0 0 0 0 0 0 0 0 0 0
0 0 0 0 0 0 0 0 0 0 0 0 0 0 0 0 0 0 0 0 0 0 0 0 0 0 0 0 0 0 0 0 0 0 0 0 0 0 0 0 0 0 0
0 0 0 0 0 0 0 0 0 0 0 0 0 0 0 0 0 0 0 0 0 0 0 0 0 0 0 0 0 0 0 0 0 0 0 0 0 0 0 0 0 0 0
0 0 0 0 0 0 0 0 0 0 0 0 0 0 0 0 0 0 0 0 0 0 0 0 0 0 0 0 0 0 0 0 0 0 0 0 0 0 0 0 0 0 0
0 0 0 0 0 0 0 0 0 0 0 0 0 0 0 0 0 0 0 0 0 0 0 0 0 0 0 0 0 0 0 0 0 0 0 0 0 0 0 0 0 0 0
0 0 0 0 0 0 0 0 0 0 0 0 0 0 0 0 0 0 0 0 0 0 0 0 0 0 0 0 0 0 0 0 0 0 0 0 0 0 0 0 0 0 0
0 0 0 0 0 0 0 0 0 0 0 0 0 0 0 0 0 0 0 0 0 0 0 0 0 0 0 0 0 0 0 0 0 0 0 0 0 0 0 0 0 0 0
0 0 0 0 0 0 0 0 0 0 0 0 0 0 0 0 0 0 0 0 0 0 0 0 0 0 0 0 0 0 0 0 0 0 0 0 0 0 0 0 0 0 0
0 0 0 0 0 0 0 0 0 0 0 0 0 0 0 0 0 0 0 0 0 0 0 0 0 0 0 0 0 0 0 0 0 0 0 0 0 0 0 0 0 0 0
0 0 0 0 0 0 0 0 0 0 0 0 0 0 0 0 0 0 0 0 0 0 0 0 0 0 0 0 0 0 0 0 0 0 0 0 0 0 0 0 0 0 0
0 0 0 0 0 0 0 0 0 0 0 0 0 0 0 0 0 0 0 0 0 0 0 0 0 0 0 0 0 0 0 0 0 0 0 0 0 0 0 0 0 0 0
0 0 0 0 0 0 0 0 0 0 0 0 0 0 0 0 0 0 0 0 0 0 0 0 0 0 0 0 0 0 0 0 0 0 0 0 0 0 0 0 0 0 0
Wind_Speed
2 1 2 1 1 1 1 1 1 2 2 1 2 2 2 3 4 4 3 7 8 7 7 7 7 7 8 8 8 9 8 8 8 8 8 8 8 9 9 9 9 10 9
2 2 2 2 1 1 1 1 1 2 2 1 2 2 2 3 3 4 4 4 7 7 7 7 7 6 6 7 7 7 8 8 8 8 8 8 8 8 8 9 9 9 9
3 2 2 1 1 1 1 1 2 2 2 2 2 2 2 2 3 3 4 3 3 5 6 6 6 6 6 6 6 6 6 6 6 6 7 7 7 7 8 8 9 9 9
3 2 2 1 2 1 1 1 1 2 1 2 2 1 1 2 2 2 3 3 2 3 4 6 5 5 4 4 4 4 4 5 5 5 5 5 6 6 7 7 8 8 8
3 2 2 2 2 2 1 1 1 1 2 2 1 1 1 1 1 2 3 3 3 3 2 4 5 4 4 3 2 2 3 3 3 3 4 4 5 5 6 6 7 8 8
3 2 2 2 2 2 1 1 1 1 2 1 1 1 0 1 1 1 2 2 2 3 3 3 2 2 3 2 1 1 1 1 2 2 3 3 4 4 5 5 6 7 8
2 2 2 1 1 2 2 2 1 2 1 1 2 1 1 0 1 1 1 2 2 2 2 2 2 1 1 1 1 1 1 1 1 2 2 3 3 4 4 5 6 7 7
1 1 2 1 1 1 2 2 2 1 1 1 1 1 0 1 1 1 1 2 2 2 2 2 2 2 1 1 1 0 2 3 3 3 3 4 4 4 5 5 6 6 7
1 1 1 2 1 1 2 2 2 2 1 1 0 2 2 2 0 1 2 2 2 2 2 1 2 2 1 1 1 0 2 3 4 4 4 5 5 5 5 6 6 7 7
1 1 1 1 1 1 2 2 1 1 2 1 1 0 1 2 2 0 1 1 2 2 2 2 2 2 2 1 2 1 1 3 4 5 5 6 6 6 6 6 7 7 7
1 1 1 1 2 2 2 2 1 1 1 2 1 1 0 0 1 2 2 1 1 2 2 2 2 1 2 2 2 1 2 3 5 6 7 7 7 7 7 7 7 8 8
1 1 2 2 2 2 2 2 2 2 1 1 1 1 1 1 1 1 1 2 2 2 2 2 2 2 2 2 2 2 3 4 6 7 8 7 7 7 7 7 8 8 9
1 2 2 2 2 1 2 2 2 2 2 2 2 2 2 2 1 1 1 1 1 1 1 2 2 3 2 2 2 3 4 5 6 8 8 8 8 7 8 8 9 9 9
2 2 2 2 2 2 2 2 2 2 2 2 3 2 2 2 1 1 2 1 1 2 2 3 1 2 2 2 3 3 3 5 7 8 9 9 8 8 9 9 10 10 10
2 2 2 2 2 2 2 2 2 2 2 2 2 3 2 2 2 2 2 2 3 2 3 2 1 2 1 1 2 2 3 6 7 8 8 8 8 9 9 10 10 10 11
2 3 3 2 2 2 3 2 2 3 3 3 3 3 3 2 2 2 2 2 2 3 3 2 2 2 2 2 3 2 3 6 7 8 8 8 9 9 10 10 10 11 11
2 3 3 3 3 3 3 3 3 4 4 3 3 4 5 4 3 3 2 2 3 2 4 3 1 1 1 2 2 2 3 3 4 8 9 10 10 10 10 10 11 11 11
3 3 3 3 3 4 4 4 4 4 4 4 5 5 5 4 4 3 3 3 3 3 3 4 2 1 2 3 3 3 3 3 3 7 9 10 10 10 10 11 11 11 11
3 3 3 3 3 4 4 4 4 4 5 5 5 5 5 5 5 4 4 4 3 3 2 3 3 2 2 2 2 3 3 3 4 5 8 9 10 10 11 11 11 11 10
2 3 3 3 3 3 4 4 4 4 4 5 5 5 5 6 6 5 4 4 3 3 3 3 3 2 2 2 1 2 3 2 3 4 6 6 8 10 11 12 11 10 10
2 3 3 3 3 3 4 4 4 5 5 5 5 5 6 7 8 6 5 4 4 3 3 3 3 3 3 2 2 2 3 2 3 3 2 3 3 4 5 9 9 9 10
2 2 3 3 3 3 5 6 5 4 5 5 5 5 5 6 7 8 8 7 7 5 5 4 4 4 5 4 2 2 2 2 3 2 1 4 3 4 4 4 8 10 11
2 3 3 3 4 4 6 7 7 4 5 5 5 5 4 5 6 5 6 7 7 8 8 5 5 6 5 4 3 3 3 3 4 3 2 4 3 4 4 5 10 11 10
3 3 4 4 4 4 6 6 7 4 4 4 5 5 5 5 5 5 4 5 5 6 7 5 5 5 4 4 4 4 4 3 3 3 2 3 3 3 3 3 9 10 9
3 3 3 4 4 4 6 6 5 3 3 4 4 4 4 4 7 8 5 5 5 4 6 7 7 6 6 6 4 2 2 2 4 3 2 2 2 3 3 3 5 7 8
3 3 3 3 4 4 5 6 5 2 3 3 3 3 5 6 7 7 5 5 5 5 3 3 3 4 4 5 7 4 3 3 3 3 2 1 2 2 3 2 2 2 4
Wind_Direction
131 135 127 126 125 118 130 150 117 107 103 101 101 93 86 86 94 94 86 82 79 78 82 85 86 84 86 84 79 75 73 70 65 63 60 56 51 46 42 38 36 33 30
122 116 112 111 102 99 103 112 98 94 91 89 85 83 78 79 89 103 110 89 80 76 77 81 80 83 85 85 82 76 72 68 65 61 57 54 49 43 38 35 30 26 24
123 117 113 113 105 96 83 65 75 76 88 84 80 71 68 73 83 93 109 116 99 77 75 79 81 81 85 85 81 78 75 71 65 60 53 49 44 39 34 30 24 22 20
124 113 116 122 113 91 75 77 72 72 71 77 81 78 77 84 87 94 100 109 112 105 82 82 85 82 78 82 81 80 77 71 65 55 48 42 38 35 33 26 20 18 14
124 121 131 141 130 120 116 123 86 98 86 69 79 84 80 93 106 109 113 112 112 115 120 101 91 84 75 71 74 78 78 69 59 48 40 32 30 29 25 18 12 9 7
123 121 133 147 138 136 135 127 119 105 116 122 81 62 64 133 134 121 128 122 126 130 132 133 128 112 96 87 72 51 50 45 40 32 26 19 13 11 8 4 4 2 0
103 120 128 139 137 150 153 141 131 125 124 107 87 48 324 213 166 154 140 136 142 138 135 141 144 143 150 122 88 4 315 305 318 339 349 349 348 349 348 347 348 351 351
96 128 139 145 146 149 135 131 127 128 148 139 140 144 179 300 269 188 158 167 167 161 163 161 154 149 147 146 145 355 309 303 294 302 316 319 323 328 328 329 332 338 340
107 122 148 149 160 158 159 150 154 148 176 220 157 151 159 201 260 244 210 180 170 167 176 176 166 157 147 134 144 51 325 316 302 294 296 303 305 306 312 318 323 327 331
140 124 147 161 166 166 161 161 158 157 160 196 261 255 182 158 149 253 273 222 191 185 189 187 179 181 165 159 152 155 284 296 291 291 289 293 297 298 303 309 317 321 325
161 162 165 167 172 172 163 157 167 171 179 189 198 221 282 329 195 168 231 252 264 233 200 189 184 182 175 165 165 191 233 274 283 285 288 289 293 302 306 308 313 316 317
168 179 176 167 176 177 171 173 181 190 209 207 207 201 186 190 221 189 208 236 241 245 229 202 183 181 181 172 187 198 232 266 277 281 286 290 293 299 304 306 307 308 309
189 203 180 171 177 185 183 178 184 200 212 215 212 216 218 218 211 206 204 242 253 260 236 231 205 182 185 179 190 209 238 259 273 280 286 293 296 299 299 298 298 301 303
195 200 182 178 179 184 185 181 198 209 209 217 224 220 225 230 213 204 199 199 258 269 242 236 225 190 185 187 202 209 238 257 273 278 284 292 296 296 293 291 292 294 297
188 184 185 185 191 192 193 189 198 209 206 213 218 222 226 235 224 219 208 194 195 235 254 234 211 210 196 190 215 224 236 257 272 277 281 288 291 288 287 288 289 291 293
190 183 192 191 193 199 203 199 201 207 209 216 217 219 225 227 223 218 218 222 210 209 245 243 222 220 207 226 237 245 249 268 267 273 280 284 286 286 283 282 285 288 290
191 194 198 199 201 204 205 207 213 210 216 221 225 224 228 222 218 218 218 222 228 214 240 268 258 237 229 241 251 253 261 254 257 269 275 280 283 283 284 285 285 287 288
201 201 204 209 211 209 207 211 219 219 219 223 226 226 230 224 222 220 217 222 229 226 224 255 270 253 244 240 239 255 265 263 254 269 274 279 280 283 285 286 288 288 288
209 206 207 216 221 219 218 220 220 225 227 227 224 226 227 219 226 224 221 224 229 235 223 235 258 252 251 246 254 274 272 271 270 271 274 275 279 283 286 288 289 289 290
216 219 221 224 225 228 231 229 227 231 236 236 229 226 226 221 222 219 222 225 223 228 229 232 248 251 253 253 231 257 277 269 276 278 271 271 275 283 286 286 285 286 288
235 229 228 231 230 229 230 230 231 234 237 243 240 232 229 226 223 222 222 217 213 221 228 234 244 253 251 247 242 234 257 280 281 263 269 273 273 269 273 276 277 277 286
245 237 230 227 233 239 241 241 242 238 238 237 239 237 234 227 227 234 239 235 226 220 223 229 242 243 249 244 240 239 253 284 288 268 273 281 273 270 266 256 271 283 289
236 241 239 233 238 244 245 245 245 246 239 238 235 232 236 232 228 223 237 246 252 252 243 235 236 240 241 232 224 236 238 247 257 257 281 279 269 267 268 274 283 284 284
230 235 238 239 244 249 249 251 254 252 246 241 233 227 227 227 224 221 221 231 239 245 247 243 236 239 241 227 217 224 231 253 272 260 228 265 273 266 278 277 280 280 282
244 242 238 238 245 255 249 249 250 249 250 247 239 232 229 226 234 231 223 228 242 255 258 252 252 259 260 260 253 230 225 250 278 270 225 229 269 291 281 270 274 281 292
246 250 253 247 244 253 253 247 242 234 246 252 248 238 240 241 241 233 222 217 236 246 240 248 258 268 257 251 252 227 210 229 255 270 235 213 265 313 301 274 268 285 292